Weather History for New Castle, PA

Change the Weather History Date:

Sunday, March 10, 2013

  Actual Average Record
Temperature  
Mean Temperature 54 °F -  
Max Temperature 68 °F 49 °F 72 °F (1973)
Min Temperature 41 °F 24 °F -5 °F (1984)
Degree Days  
Heating Degree Days 10    
Growing Degree Days 4 (Base 50)    
Moisture  
Dew Point 28 °F    
Average Humidity 36    
Maximum Humidity 49    
Minimum Humidity 26    
Precipitation  
Precipitation 0.00 in - - ()
Sea Level Pressure  
Sea Level Pressure 30.11 in    
Wind  
Wind Speed 5 mph (SSE)    
Max Wind Speed 12 mph    
Max Gust Speed -    
Visibility 10 miles    
Events      
Averages and records for this station are not official NWS values.
T = Trace of Precipitation, MM = Missing Value Source: NWS Daily Summary

Daily Weather History Graph

Daily Weather History Graph

Search for Another Location

Airport:

Trip Planner

Search our weather history database for the weather conditions in past years. The results will help you decide how hot, cold, wet, or windy it might be!

Date:

Astronomy

Mar. 10, 2013 Rise Set
Actual Time 7:41 AM EDT 7:23 PM EDT
Civil Twilight 7:13 AM EDT 7:50 PM EDT
Nautical Twilight 6:41 AM EDT 8:22 PM EDT
Astronomical Twilight 6:09 AM EDT 8:54 PM EDT
Moon 6:40 AM EDT (3/10) 6:29 PM EDT (3/10)
Length of Visible Light 12h 36m
Length of Day
11h 41m
Waning Crescent, 2% of the Moon is Illuminated
Mar 10
Waning Crescent
Mar 11
New
Mar 19
First Quarter
Mar 27
Full
Apr 3
Last Quarter

Hourly Weather History & Observations

Time (EDT) Temp. Windchill Dew Point Humidity Pressure Visibility Wind Dir Wind Speed Gust Speed Precip Events Conditions
12:56 AM 43.0 °F 40.3 °F 23.0 °F 45% 30.22 in 10.0 mi Variable 4.6 mph - N/A   Clear
1:56 AM 43.9 °F 42.3 °F 22.1 °F 42% 30.19 in 10.0 mi Variable 3.5 mph - N/A   Mostly Cloudy
4:56 AM 41.0 °F - 23.0 °F 49% 30.17 in 10.0 mi Calm Calm - N/A   Scattered Clouds
5:56 AM 43.9 °F - 22.1 °F 42% 30.16 in 10.0 mi Calm Calm - N/A   Partly Cloudy
6:56 AM 43.0 °F - 23.0 °F 45% 30.17 in 10.0 mi Calm Calm - N/A   Mostly Cloudy
8:56 AM 45.9 °F 42.9 °F 22.1 °F 39% 30.19 in 10.0 mi Variable 5.8 mph - N/A   Clear
9:56 AM 46.9 °F - 25.2 °F 43% 30.20 in 10.0 mi South 4.6 mph - N/A   Partly Cloudy
10:56 AM 50.0 °F - 27.1 °F 41% 30.20 in 10.0 mi Variable 6.9 mph - N/A   Scattered Clouds
11:56 AM 52.9 °F - 28.0 °F 38% 30.18 in 10.0 mi Variable 6.9 mph - N/A   Scattered Clouds
12:56 PM 59.0 °F - 30.0 °F 33% 30.16 in 10.0 mi Variable 4.6 mph - N/A   Partly Cloudy
1:56 PM 61.0 °F - 30.0 °F 31% 30.12 in 10.0 mi Variable 6.9 mph - N/A   Clear
2:56 PM 64.9 °F - 32.0 °F 29% 30.08 in 10.0 mi SE 8.1 mph - N/A   Clear
3:56 PM 68.0 °F - 32.9 °F 27% 30.06 in 10.0 mi SSE 10.4 mph - N/A   Scattered Clouds
4:56 PM 68.0 °F - 32.0 °F 26% 30.04 in 10.0 mi SSE 9.2 mph - N/A   Clear
5:56 PM 68.0 °F - 32.0 °F 26% 30.05 in 10.0 mi South 8.1 mph - N/A   Clear
6:56 PM 65.8 °F - 32.0 °F 28% 30.04 in 10.0 mi Calm Calm - N/A   Clear
7:56 PM 63.9 °F - 30.0 °F 28% 30.05 in 10.0 mi Calm Calm - N/A   Clear
8:56 PM 59.9 °F - 30.0 °F 32% 30.04 in 10.0 mi ESE 5.8 mph - N/A   Clear
9:56 PM 59.0 °F - 30.0 °F 33% 30.04 in 10.0 mi SE 11.5 mph - N/A   Clear
10:56 PM 57.9 °F - 30.0 °F 35% 30.04 in 10.0 mi Variable 4.6 mph - N/A   Clear
11:56 PM 56.8 °F - 30.0 °F 36% 30.02 in 10.0 mi SE 4.6 mph - N/A   Clear
12:56 AM 56.8 °F - 30.0 °F 36% 29.99 in 10.0 mi SE 9.2 mph - N/A   Clear